This demonstration page uses our WeatherBlox Daily Observations layout. Learn more.

Left ArrowRight Arrow

Hourly Observations for October 1, 2017

Temp ( °F °C ) Dew Point ( °F °C ) Humidity (%) Winds ( mph kmh ) Pressure ( in mb ) Visibility ( mi km ) Precip ( " mm )
12:51 am 00:51 Clear 64 17.8 40 4.4 41 41 ESE 5 7 29.76 1008 10 16 N/A
1:51 am 01:51 Clear 64 17.8 41 5 43 43 ESE 3 6 29.76 1008 10 16 N/A
2:51 am 02:51 Clear 61 16.1 39 3.9 44 44 E 3 6 29.77 1008 10 16 N/A
3:51 am 03:51 Clear 58 14.4 39 3.9 50 50 NE 6 9 29.77 1008 10 16 N/A
4:51 am 04:51 Clear 57 13.9 40 4.4 53 53 SSW 3 6 29.78 1008 10 16 N/A
5:51 am 05:51 Clear 54 12.2 38 3.3 55 55 SE 5 7 29.79 1009 10 16 N/A
6:51 am 06:51 Sunny 59 15 39 3.9 48 48 E 8 13 29.79 1009 10 16 N/A
7:51 am 07:51 Sunny 67 19.4 43 6.1 42 42 SSE 5 7 29.79 1009 10 16 N/A
8:51 am 08:51 Sunny 78 25.6 47 8.3 33 33 E 10 17 29.78 1008 10 16 N/A
9:51 am 09:51 Sunny 82 27.8 41 5 23 23 SE 10 17 29.75 1008 10 16 N/A
10:51 am 10:51 Sunny 85 29.4 40 4.4 20 20 SSW 8 13 29.74 1007 10 16 N/A
11:51 am 11:51 Sunny 87 30.6 35 1.7 16 16 N N/A 29.71 1006 10 16 N/A
12:51 pm 12:51 Sunny 91 32.8 32 undefined 12 12 VRB 6 9 29.67 1005 10 16 N/A
1:51 pm 13:51 Sunny 90 32.2 31 -0.6 12 12 VRB 5 7 29.64 1004 10 16 N/A
2:51 pm 14:51 Sunny 92 33.3 29 -1.7 10 10 VRB 6 9 29.62 1003 10 16 N/A
3:51 pm 15:51 Sunny 93 33.9 26 -3.3 9 9 WNW 9 15 29.60 1002 10 16 N/A
4:51 pm 16:51 Sunny 92 33.3 23 -5 8 8 NW 12 19 29.59 1002 10 16 N/A
5:51 pm 17:51 Sunny 88 31.1 25 -3.9 10 10 WNW 12 19 29.60 1002 10 16 N/A
6:51 pm 18:51 Clear 78 25.6 26 -3.3 15 15 NNW 8 13 29.61 1003 10 16 N/A
7:51 pm 19:51 Clear 79 26.1 26 -3.3 14 14 NNW 9 15 29.61 1003 10 16 N/A
8:51 pm 20:51 Clear 72 22.2 26 -3.3 18 18 WSW 5 7 29.61 1003 10 16 N/A
9:51 pm 21:51 Clear 72 22.2 27 -2.8 19 19 NW 3 6 29.60 1003 10 16 N/A
10:51 pm 22:51 Clear 65 18.3 26 -3.3 23 23 E 5 7 29.62 1003 10 16 N/A
11:51 pm 23:51 Clear 65 18.3 26 -3.3 23 23 ENE 8 13 29.61 1003 10 16 N/A

Powered by AerisWeather